TimeCDT,TemperatureF,Dew PointF,Humidity,Sea Level PressureIn,VisibilityMPH,Wind Direction,Wind SpeedMPH,Gust SpeedMPH,PrecipitationIn,Events,Conditions,WindDirDegrees,DateUTC
12:53 AM,39.9,34.0,79,30.10,10.0,South,6.9,-,N/A,,Clear,190,2013-10-17 05:53:00
1:53 AM,42.1,35.1,76,30.09,10.0,SSW,9.2,-,N/A,,Clear,210,2013-10-17 06:53:00
2:53 AM,43.0,35.1,74,30.09,10.0,SW,8.1,-,N/A,,Clear,220,2013-10-17 07:53:00
3:53 AM,41.0,35.1,79,30.08,10.0,SSW,5.8,-,N/A,,Clear,210,2013-10-17 08:53:00
4:53 AM,41.0,35.1,79,30.07,10.0,SW,4.6,-,N/A,,Clear,230,2013-10-17 09:53:00
5:53 AM,41.0,35.1,79,30.06,10.0,WSW,5.8,-,N/A,,Clear,240,2013-10-17 10:53:00
6:53 AM,42.1,36.0,79,30.06,10.0,WSW,8.1,-,N/A,,Clear,240,2013-10-17 11:53:00
7:53 AM,42.1,36.0,79,30.07,10.0,WSW,6.9,-,N/A,,Clear,240,2013-10-17 12:53:00
8:53 AM,45.0,39.0,80,30.09,9.0,Calm,Calm,-,N/A,,Clear,0,2013-10-17 13:53:00
9:53 AM,53.1,42.1,66,30.10,10.0,NW,9.2,-,N/A,,Clear,320,2013-10-17 14:53:00
10:53 AM,59.0,44.1,58,30.09,10.0,NW,6.9,-,N/A,,Clear,310,2013-10-17 15:53:00
11:53 AM,63.0,45.0,52,30.08,8.0,WNW,10.4,-,N/A,,Clear,300,2013-10-17 16:53:00
12:53 PM,66.0,45.0,47,30.05,9.0,Variable,3.5,-,N/A,,Clear,0,2013-10-17 17:53:00
1:53 PM,68.0,44.1,42,30.01,10.0,NW,3.5,-,N/A,,Clear,320,2013-10-17 18:53:00
2:53 PM,69.1,45.0,42,29.98,10.0,Calm,Calm,-,N/A,,Clear,0,2013-10-17 19:53:00
3:53 PM,72.0,45.0,38,29.94,10.0,NNE,4.6,-,N/A,,Clear,30,2013-10-17 20:53:00
4:53 PM,73.0,45.0,37,29.92,10.0,NE,8.1,-,N/A,,Scattered Clouds,40,2013-10-17 21:53:00
5:53 PM,72.0,45.0,38,29.91,10.0,East,5.8,-,N/A,,Partly Cloudy,100,2013-10-17 22:53:00
6:53 PM,70.0,42.1,36,29.91,10.0,South,9.2,19.6,N/A,,Overcast,170,2013-10-17 23:53:00
7:53 PM,66.0,42.1,42,29.93,10.0,SSE,9.2,-,N/A,,Scattered Clouds,160,2013-10-18 00:53:00
8:53 PM,61.0,43.0,52,29.94,10.0,SE,9.2,-,N/A,,Clear,130,2013-10-18 01:53:00
9:53 PM,57.9,43.0,58,29.94,10.0,SE,8.1,-,N/A,,Clear,130,2013-10-18 02:53:00
10:53 PM,57.9,42.1,56,29.95,10.0,SE,8.1,-,N/A,,Scattered Clouds,140,2013-10-18 03:53:00
11:53 PM,57.9,43.0,58,29.94,10.0,SSE,9.2,-,N/A,,Partly Cloudy,150,2013-10-18 04:53:00